User: anonymous   Login
Location: Unspecified
(0.0000°N, 0.0000°E)
Time: 15:43:44
(UTC+02:00)
Language:

ISS - Orbit

View from above orbital plane
View from above orbital plane
View from above satellite
View from above satellite

Ground track
Ground track

The orbit data is extracted from the following two-line orbital elements,

1 25544U 98067A   15146.17211566  .00006342  00000-0  99125-4 0  9991
2 25544 051.6441 193.9522 0003994 346.2996 064.0211 15.55191002944615
Epoch (UTC): 26 May 2015 04:07:50
Eccentricity: 0.0003994
inclination: 51.6441°
perigee height: 399 km
apogee height: 404 km
right ascension of ascending node: 193.9522°
argument of perigee: 346.2996°
revolutions per day: 15.55191002
mean anomaly at epoch: 64.0211°
orbit number at epoch: 94461

The dashed part of the orbit path shows where the satellite is in the earth's shadow,  

DLR